Nos coordonnées

Nous sommes à votre écoute du lundi au dimanche de 10:00 à 19:00 au :

+32 (0)495 19 89 53

 

Adresse d'exploitation Adresse de facturation
Chaussée de Nivelles, 629
6230 Buzet
Belgique
Kouter 107/2
9000 Gent
Belgique

contact @ blackhelicopters.be (n'oubliez pas de supprimer les espaces)


Nous retrouver

Il est très fortement conseillé de nous appeler avant de venir sur le terrain, nous pouvons être en mission ou en vol!

 

La carte ci-dessous est interactive, cherchez vos itinéraires, déplacez la pour vous retrouver.

News

Votre panier

Le panier est vide

Météo Charleroi

METAR
EBCI 290650Z 23008KT 200V270 9000 -SHRA FEW006 BKN012 BKN030 09/08 Q1015 NOSIG =
EBCI 290501Z 2906/3012 23012KT 9999 SCT025 BECMG 2910/2912 SCT007 BKN011 TEMPO 2912/2916 4000 RA BKN007 TEMPO 2916/3005 3500 -RA -RADZ BKN007 BECMG 3004/3006 SCT025
TAF
EBCI 290501Z 2906/3012 23012KT 9999 SCT025 BECMG 2910/2912 SCT007 BKN011 TEMPO 2912/2916 4000 RA BKN007 TEMPO 2916/3005 3500 -RA -RADZ BKN007 BECMG 3004/3006 SCT025 =
Lever / Coucher : 06:30 / 16:23 UTC (Buzet 2020-10-29)